Dewpoint
-10 -10 -8 -8 -8 -3 -3 -3 -2 -1 -5 -6 -6 -7 -7 -7 -6 -7 -6 -5 -4 -3 -4 -6 -6 -7 -8 -8 -8 -6 -5 -4 -4 -4 -2 1 3 6 9 10 10 11
-11 -8 -6 -8 -7 -5 -5 -2 -3 -5 -5 -5 -6 -7 -7 -8 -9 -8 -7 -7 -5 -5 -7 -7 -8 -7 -8 -8 -8 -6 -5 -4 -4 -4 -3 -3 0 4 7 8 9 10
-12 -12 -11 -10 -8 -7 -5 -2 -4 -4 -5 -6 -7 -9 -9 -9 -9 -9 -9 -7 -6 -7 -8 -8 -8 -8 -7 -7 -8 -7 -7 -5 -4 -4 -2 -1 0 3 5 7 8 9
-13 -12 -10 -9 -8 -6 -2 -3 -4 -5 -6 -7 -9 -10 -9 -9 -9 -9 -9 -6 -8 -8 -9 -9 -9 -9 -8 -8 -7 -7 -6 -5 -5 -4 -3 -2 -0 1 2 5 9 10
-12 -11 -9 -8 -7 -4 -3 -4 -6 -7 -7 -9 -10 -10 -9 -10 -9 -9 -8 -8 -8 -8 -8 -9 -9 -9 -9 -9 -8 -7 -7 -6 -6 -5 -4 -3 -2 -2 -2 -1 4 7
-10 -9 -8 -8 -5 -4 -4 -5 -6 -6 -8 -10 -9 -8 -9 -9 -9 -9 -9 -9 -9 -9 -9 -8 -9 -9 -9 -9 -9 -9 -7 -7 -6 -5 -5 -4 -4 -3 -3 -2 -0 1
-10 -8 -8 -8 -4 -4 -4 -5 -6 -6 -9 -9 -8 -8 -9 -9 -10 -10 -9 -10 -10 -10 -10 -10 -10 -10 -10 -10 -9 -9 -8 -9 -9 -8 -8 -8 -6 -6 -5 -3 -2 -1
-9 -8 -8 -9 -5 -4 -4 -6 -7 -8 -8 -8 -9 -9 -9 -9 -9 -9 -9 -10 -10 -11 -10 -10 -9 -9 -10 -10 -9 -9 -10 -10 -10 -8 -8 -8 -7 -7 -6 -3 -3 -2
-9 -9 -9 -8 -4 -4 -6 -8 -8 -9 -8 -9 -9 -9 -9 -9 -9 -9 -10 -10 -10 -10 -10 -10 -10 -10 -10 -10 -10 -10 -10 -10 -9 -8 -8 -7 -6 -5 -5 -4 -3 -2
-9 -9 -9 -8 -6 -6 -8 -8 -9 -9 -8 -9 -9 -9 -9 -9 -10 -10 -11 -11 -11 -11 -11 -11 -11 -10 -10 -10 -10 -10 -10 -9 -8 -7 -7 -7 -6 -5 -4 -3 -2 -1
-9 -9 -9 -9 -9 -9 -9 -10 -9 -9 -10 -9 -9 -10 -10 -10 -10 -11 -11 -11 -11 -11 -12 -12 -11 -11 -11 -11 -11 -11 -11 -10 -8 -8 -8 -7 -7 -7 -5 -6 -5 -5
-9 -9 -9 -9 -9 -9 -10 -10 -9 -10 -10 -10 -10 -11 -11 -10 -11 -11 -11 -11 -12 -12 -12 -12 -12 -12 -12 -12 -12 -12 -12 -10 -9 -8 -9 -8 -8 -8 -7 -7 -7 -7
-10 -10 -9 -9 -10 -10 -9 -9 -10 -10 -10 -11 -10 -10 -11 -11 -11 -11 -11 -12 -12 -12 -12 -12 -12 -12 -11 -12 -11 -11 -10 -10 -9 -9 -9 -9 -8 -8 -7 -6 -6 -5
-11 -10 -10 -10 -9 -9 -9 -10 -10 -10 -10 -11 -10 -11 -10 -11 -10 -11 -12 -12 -13 -13 -12 -12 -11 -11 -11 -10 -10 -10 -9 -10 -9 -9 -9 -8 -7 -7 -5 -4 -4 -3
-10 -10 -10 -10 -10 -10 -10 -11 -10 -11 -11 -11 -10 -10 -10 -10 -10 -12 -12 -12 -13 -13 -12 -11 -11 -11 -11 -11 -11 -10 -8 -8 -7 -6 -5 -5 -4 -4 -3 -2 -2 -0
-11 -10 -10 -10 -10 -10 -11 -11 -11 -11 -12 -11 -11 -11 -11 -11 -11 -11 -11 -12 -12 -12 -12 -12 -12 -12 -9 4 8 -0 -0 0 1 1 1 1 1 -0 -0 1 1 2
-11 -11 -11 -11 -10 -11 -11 -11 -11 -11 -11 -11 -12 -12 -12 -12 -12 -13 -13 -13 -13 -13 -13 -13 -13 -12 4 8 10 13 6 2 2 1 1 1 -0 -0 -0 0 1 2
-11 -11 -10 -10 -10 -11 -11 -11 -12 -12 -12 -12 -13 -14 -13 -13 -13 -13 -13 -13 -13 -14 -14 -13 -13 -3 8 9 11 12 4 -3 -2 -1 -2 -2 -1 -2 -1 -1 -1 -0
-11 -10 -10 -11 -11 -11 -11 -11 -12 -13 -13 -14 -14 -14 -14 -14 -14 -14 -14 -14 -14 -14 -14 -14 -13 2 7 10 9 7 7 1 -3 -2 -1 -2 -1 -1 -1 -0 0 1
-11 -10 -11 -11 -11 -11 -12 -13 -13 -14 -14 -14 -14 -14 -14 -14 -15 -15 -14 -15 -15 -15 -14 -14 -14 -0 7 10 2 7 7 7 -1 -1 -0 -1 -1 -1 -0 1 1 1
-11 -11 -11 -12 -12 -12 -13 -14 -14 -14 -14 -14 -15 -14 -15 -15 -15 -16 -15 -15 -15 -15 -15 -15 -14 4 9 7 6 8 8 10 0 1 0 -1 -1 -1 -1 0 1 1
-11 -11 -12 -12 -13 -13 -14 -14 -15 -15 -15 -15 -15 -15 -15 -15 -15 -15 -15 -16 -15 -15 -15 -15 -14 6 8 4 3 11 10 1 0 1 0 -0 -1 -1 -1 0 1 2
-11 -12 -13 -13 -14 -15 -15 -15 -15 -15 -16 -15 -16 -16 -16 -16 -16 -16 -15 -15 -15 -15 -15 -15 -14 -2 8 8 1 11 9 1 1 1 1 0 -1 -1 -0 1 1 2
-12 -13 -14 -14 -15 -16 -16 -16 -16 -15 -16 -16 -16 -17 -16 -17 -16 -16 -16 -15 -15 -15 -15 -15 -14 -3 8 10 8 5 6 0 2 1 0 0 0 0 0 1 1 4
-13 -14 -15 -15 -16 -16 -16 -17 -17 -16 -16 -16 -16 -17 -17 -17 -16 -17 -17 -16 -15 -15 -12 -12 -12 -5 7 10 13 12 6 2 1 0 1 1 1 1 1 1 2 4
-14 -15 -15 -16 -16 -17 -17 -17 -17 -17 -17 -17 -17 -17 -18 -17 -17 -17 -17 -17 -15 -15 -14 -13 -12 -11 -6 10 10 8 7 -0 2 3 3 3 3 2 1 1 2 2